When you browse on this site, cookies collect data to enhance your experience and personalize the content and advertising you see.
Visit our Privacy Policy to learn more. By continuing to use the site, you agree to this use of cookies and data.
  • în România
  • Lista ţărilor
  • Pe 7 zile
  • Temperatura apei
  • Hartă satelitară
  • Meteo pe hartă
  • Widget-uri
  • user-avatar
    Intrare

    Meteo pe oră la Koniusza

    Astăzi, 25 Mai, Sâmbătă

    Timp Temperatura Precipitaţii Vânt Presiune Umiditate
    00:00 +10°C° 0 mm 2 m/s 731 mmHg 92%
    01:00 +10°C° 0 mm 2 m/s 730 mmHg 92%
    02:00 +9°C° 0 mm 2 m/s 731 mmHg 92%
    03:00 +9°C° 0 mm 2 m/s 731 mmHg 92%
    04:00 +9°C° 0 mm 2 m/s 731 mmHg 92%
    05:00 +10°C° 0 mm 2 m/s 731 mmHg 88%
    06:00 +13°C° 0 mm 2 m/s 731 mmHg 85%
    07:00 +14°C° 0 mm 2 m/s 731 mmHg 81%
    08:00 +16°C° 0 mm 3 m/s 731 mmHg 73%
    09:00 +18°C° 0 mm 3 m/s 731 mmHg 66%
    10:00 +19°C° 0 mm 3 m/s 731 mmHg 59%
    11:00 +20°C° 0 mm 3 m/s 731 mmHg 57%
    12:00 +20°C° 0 mm 3 m/s 731 mmHg 56%
    13:00 +21°C° 0 mm 3 m/s 731 mmHg 54%
    14:00 +21°C° 0 mm 3 m/s 731 mmHg 56%
    15:00 +21°C° 0 mm 3 m/s 731 mmHg 58%
    16:00 +21°C° 0 mm 3 m/s 731 mmHg 60%
    17:00 +20°C° 0.2 mm 2 m/s 731 mmHg 66%
    18:00 +18°C° 0.2 mm 2 m/s 731 mmHg 72%
    19:00 +17°C° 0.2 mm 2 m/s 731 mmHg 78%
    20:00 +15°C° 0 mm 1 m/s 731 mmHg 81%
    21:00 +14°C° 0 mm 1 m/s 731 mmHg 84%
    22:00 +13°C° 0 mm 1 m/s 731 mmHg 87%
    23:00 +13°C° 0 mm 1 m/s 732 mmHg 88%

    Mâine, 26 Mai, Duminică

    Timp Temperatura Precipitaţii Vânt Presiune Umiditate
    00:00 +13°C° 0 mm 1 m/s 732 mmHg 88%
    01:00 +12°C° 0 mm 1 m/s 732 mmHg 89%
    02:00 +12°C° 0 mm 1 m/s 732 mmHg 89%
    03:00 +12°C° 0 mm 1 m/s 732 mmHg 90%
    04:00 +12°C° 0 mm 1 m/s 732 mmHg 90%
    05:00 +13°C° 0 mm 2 m/s 732 mmHg 87%
    06:00 +15°C° 0 mm 2 m/s 732 mmHg 84%
    07:00 +16°C° 0 mm 2 m/s 732 mmHg 82%
    08:00 +17°C° 0.2 mm 2 m/s 732 mmHg 78%
    09:00 +19°C° 0.2 mm 3 m/s 732 mmHg 75%
    10:00 +20°C° 0.2 mm 3 m/s 732 mmHg 71%
    11:00 +20°C° 0.1 mm 3 m/s 732 mmHg 68%
    12:00 +21°C° 0.1 mm 3 m/s 732 mmHg 65%
    13:00 +22°C° 0.1 mm 3 m/s 732 mmHg 62%
    14:00 +22°C° 0.2 mm 3 m/s 731 mmHg 63%
    15:00 +22°C° 0.2 mm 3 m/s 731 mmHg 64%
    16:00 +22°C° 0.2 mm 3 m/s 731 mmHg 64%
    17:00 +20°C° 0.4 mm 2 m/s 731 mmHg 70%
    18:00 +19°C° 0.4 mm 2 m/s 731 mmHg 76%
    19:00 +18°C° 0.4 mm 2 m/s 731 mmHg 82%
    20:00 +17°C° 0 mm 2 m/s 731 mmHg 84%
    21:00 +16°C° 0 mm 2 m/s 731 mmHg 86%
    22:00 +15°C° 0 mm 2 m/s 731 mmHg 89%
    23:00 +15°C° 0 mm 2 m/s 731 mmHg 90%

    Poimâine, 27 Mai, Luni

    Timp Temperatura Precipitaţii Vânt Presiune Umiditate
    00:00 +14°C° 0 mm 2 m/s 731 mmHg 91%
    01:00 +14°C° 0 mm 2 m/s 731 mmHg 92%
    02:00 +14°C° 0 mm 2 m/s 731 mmHg 92%
    03:00 +13°C° 0 mm 2 m/s 731 mmHg 92%
    04:00 +13°C° 0 mm 2 m/s 730 mmHg 92%
    05:00 +15°C° 0 mm 2 m/s 730 mmHg 88%
    06:00 +16°C° 0 mm 2 m/s 731 mmHg 85%
    07:00 +18°C° 0 mm 2 m/s 731 mmHg 82%
    08:00 +19°C° 0.1 mm 3 m/s 731 mmHg 76%
    09:00 +21°C° 0.1 mm 3 m/s 731 mmHg 71%
    10:00 +22°C° 0.1 mm 4 m/s 730 mmHg 65%
    11:00 +24°C° 0.2 mm 3 m/s 730 mmHg 63%
    12:00 +25°C° 0.2 mm 3 m/s 730 mmHg 60%
    13:00 +25°C° 0.2 mm 3 m/s 730 mmHg 58%
    14:00 +25°C° 0.3 mm 3 m/s 730 mmHg 60%
    15:00 +25°C° 0.3 mm 2 m/s 730 mmHg 62%
    16:00 +25°C° 0.3 mm 2 m/s 729 mmHg 65%
    17:00 +23°C° 0.3 mm 2 m/s 729 mmHg 69%
    18:00 +21°C° 0.3 mm 2 m/s 729 mmHg 74%
    19:00 +19°C° 0.3 mm 2 m/s 729 mmHg 79%
    20:00 +19°C° 0 mm 1 m/s 729 mmHg 80%
    21:00 +18°C° 0 mm 1 m/s 729 mmHg 82%
    22:00 +16°C° 0 mm 1 m/s 729 mmHg 84%
    23:00 +16°C° 0.6 mm 1 m/s 729 mmHg 86%

    28 Mai, Marţi

    Timp Temperatura Precipitaţii Vânt Presiune Umiditate
    00:00 +16°C° 0.6 mm 1 m/s 728 mmHg 89%
    01:00 +16°C° 0.6 mm 1 m/s 728 mmHg 92%
    02:00 +16°C° 0.9 mm 1 m/s 728 mmHg 93%
    03:00 +16°C° 0.9 mm 1 m/s 728 mmHg 94%
    04:00 +16°C° 0.9 mm 1 m/s 727 mmHg 95%
    05:00 +18°C° 0.1 mm 1 m/s 727 mmHg 93%
    06:00 +18°C° 0.1 mm 1 m/s 727 mmHg 92%
    07:00 +19°C° 0.1 mm 1 m/s 727 mmHg 90%
    08:00 +21°C° 0 mm 1 m/s 727 mmHg 83%
    09:00 +21°C° 0 mm 2 m/s 727 mmHg 76%
    10:00 +24°C° 0 mm 2 m/s 727 mmHg 68%
    11:00 +24°C° 0.7 mm 2 m/s 726 mmHg 70%
    12:00 +24°C° 0.7 mm 2 m/s 726 mmHg 71%
    13:00 +24°C° 0.7 mm 2 m/s 726 mmHg 73%
    14:00 +23°C° 3 mm 2 m/s 726 mmHg 77%
    15:00 +21°C° 3 mm 2 m/s 725 mmHg 81%
    16:00 +20°C° 3 mm 2 m/s 725 mmHg 86%
    17:00 +19°C° 0.2 mm 2 m/s 725 mmHg 88%
    18:00 +18°C° 0.2 mm 2 m/s 725 mmHg 89%
    19:00 +18°C° 0.2 mm 2 m/s 725 mmHg 91%
    20:00 +17°C° 1.3 mm 2 m/s 725 mmHg 90%
    21:00 +17°C° 1.3 mm 2 m/s 725 mmHg 88%
    22:00 +17°C° 1.3 mm 2 m/s 726 mmHg 87%
    23:00 +16°C° 0 mm 2 m/s 726 mmHg 89%

    29 Mai, Miercuri

    Timp Temperatura Precipitaţii Vânt Presiune Umiditate
    00:00 +14°C° 0 mm 3 m/s 726 mmHg 92%
    01:00 +14°C° 0 mm 3 m/s 726 mmHg 94%
    02:00 +14°C° 0.4 mm 3 m/s 727 mmHg 95%
    03:00 +13°C° 0.4 mm 3 m/s 727 mmHg 95%
    04:00 +13°C° 0.4 mm 3 m/s 728 mmHg 96%
    05:00 +13°C° 1.1 mm 4 m/s 728 mmHg 95%
    06:00 +12°C° 1.1 mm 5 m/s 729 mmHg 94%
    07:00 +10°C° 1.1 mm 6 m/s 730 mmHg 93%
    08:00 +10°C° 1 mm 6 m/s 730 mmHg 93%
    09:00 +10°C° 1 mm 5 m/s 731 mmHg 93%
    10:00 +9°C° 1 mm 5 m/s 732 mmHg 93%
    11:00 +10°C° 0.2 mm 5 m/s 733 mmHg 91%
    12:00 +11°C° 0.2 mm 4 m/s 733 mmHg 89%
    13:00 +11°C° 0.2 mm 3 m/s 734 mmHg 88%
    14:00 +12°C° 0 mm 3 m/s 734 mmHg 86%
    15:00 +12°C° 0 mm 3 m/s 734 mmHg 85%
    16:00 +14°C° 0 mm 2 m/s 735 mmHg 84%
    17:00 +13°C° 0 mm 2 m/s 735 mmHg 84%
    18:00 +12°C° 0 mm 3 m/s 736 mmHg 84%
    19:00 +12°C° 0 mm 3 m/s 736 mmHg 85%
    20:00 +11°C° 0 mm 3 m/s 736 mmHg 86%
    21:00 +10°C° 0 mm 3 m/s 737 mmHg 87%
    22:00 +9°C° 0 mm 3 m/s 737 mmHg 88%
    23:00 +8°C° 0 mm 2 m/s 738 mmHg 89%

    30 Mai, Joi

    Timp Temperatura Precipitaţii Vânt Presiune Umiditate
    00:00 +8°C° 0 mm 2 m/s 738 mmHg 91%
    01:00 +7°C° 0 mm 2 m/s 738 mmHg 92%
    02:00 +7°C° 0 mm 2 m/s 738 mmHg 92%
    03:00 +7°C° 0 mm 2 m/s 738 mmHg 93%
    04:00 +6°C° 0 mm 2 m/s 739 mmHg 93%
    05:00 +7°C° 0 mm 2 m/s 739 mmHg 87%
    06:00 +8°C° 0 mm 2 m/s 739 mmHg 82%
    07:00 +9°C° 0 mm 2 m/s 739 mmHg 76%
    08:00 +10°C° 0.1 mm 2 m/s 739 mmHg 71%
    09:00 +12°C° 0.1 mm 2 m/s 739 mmHg 66%
    10:00 +12°C° 0.1 mm 1 m/s 739 mmHg 61%
    11:00 +12°C° 0.4 mm 2 m/s 739 mmHg 66%
    12:00 +10°C° 0.4 mm 2 m/s 738 mmHg 71%
    13:00 +10°C° 0.4 mm 2 m/s 738 mmHg 76%
    14:00 +10°C° 0 mm 2 m/s 738 mmHg 75%
    15:00 +11°C° 0 mm 1 m/s 737 mmHg 75%
    16:00 +11°C° 0 mm 1 m/s 737 mmHg 74%
    17:00 +11°C° 0 mm 1 m/s 737 mmHg 75%
    18:00 +10°C° 0 mm 1 m/s 737 mmHg 76%
    19:00 +9°C° 0 mm 0 m/s 737 mmHg 77%
    20:00 +10°C° 0 mm 1 m/s 737 mmHg 75%
    21:00 +9°C° 0 mm 1 m/s 737 mmHg 72%
    22:00 +9°C° 0 mm 1 m/s 737 mmHg 70%
    23:00 +9°C° 0 mm 1 m/s 737 mmHg 70%
    Arată mai mult